{"data":{"norad_id":53968,"epoch":"2026-09-20T22:19:56.167680Z","epoch_age_seconds":49442,"freshness":"FRESH","line1":"1 53968U 22125E   26263.93051120  .00002095  00000+0  73147-4 0  9994","line2":"2 53968  53.1612  59.5013 0000966 106.8610 253.2499 15.34388765218901","mean_motion":15.34388765,"eccentricity":9.66e-5,"inclination_deg":53.1612,"raan_deg":59.5013,"arg_perigee_deg":106.861,"mean_anomaly_deg":253.2499,"bstar":7.3147e-5,"rev_number":21890,"period_min":93.848445247186,"perigee_km":462.07580480556,"apogee_km":463.3974615915,"semimajor_km":6840.8736331985,"source":"CELESTRAK","updated_at":"2026-09-21T09:00:33.039711Z"}}